Wind_Speed
33 32 30 31 32 31 30 27 27 28 29 31 34 35 36 38 37 39 39 40 39 40 40 36 32 27 21 13 13 14 15 17 20 22 23 24 24 22 22 25 21 24 25 17 19 15 15 22 17 19 23 27 22 29
32 32 31 32 34 31 30 29 28 29 30 32 34 36 36 38 38 38 38 39 37 37 40 39 33 29 24 16 13 15 14 15 18 19 19 21 24 25 24 25 21 25 24 20 20 8 13 11 3 9 21 22 24 44
31 31 32 31 33 32 31 31 30 30 30 32 34 35 36 38 38 38 38 38 37 35 38 39 35 30 23 15 13 15 14 14 16 15 16 21 26 24 20 22 23 26 25 22 15 6 5 10 7 11 25 22 36 48
32 30 31 32 33 32 32 34 31 30 30 32 34 35 37 39 40 40 39 38 37 36 35 38 33 30 24 16 13 14 14 13 15 18 19 22 24 20 19 23 21 20 24 21 10 3 5 7 3 20 26 28 41 51
33 28 31 33 34 34 33 34 32 31 31 32 33 35 38 40 41 42 39 38 38 39 36 34 31 29 23 16 13 13 14 12 13 15 16 18 19 14 17 17 22 27 26 13 2 4 2 5 12 30 33 39 47 53
33 30 32 34 34 34 33 35 34 33 32 32 34 36 40 42 43 42 41 41 41 40 34 29 29 25 21 15 13 13 13 12 13 16 15 14 17 13 16 13 20 30 23 9 7 9 10 5 14 30 35 40 48 52
35 31 32 34 33 34 34 35 34 33 32 32 34 37 41 44 43 44 46 46 45 41 35 26 27 23 20 15 13 12 12 12 13 14 16 14 13 12 12 14 24 29 19 7 2 9 11 26 17 36 36 37 45 42
34 32 32 34 34 36 34 35 34 33 33 34 37 41 44 45 46 48 49 50 46 41 34 27 26 22 17 15 13 11 11 11 11 11 12 12 11 9 9 15 21 23 18 3 1 8 18 17 26 38 29 37 43 44
33 33 33 34 34 38 35 35 33 33 35 37 40 44 45 47 50 51 53 53 49 40 32 26 24 20 14 14 12 11 8 8 9 10 9 5 5 5 8 14 19 24 20 8 3 13 22 22 34 35 26 30 44 46
32 35 34 33 35 37 35 35 33 34 37 40 44 47 47 50 53 55 55 49 43 34 24 22 19 15 15 10 10 10 5 5 7 8 7 5 6 9 10 14 16 20 22 13 8 9 23 30 23 31 37 25 31 46
32 35 32 33 37 36 35 35 34 36 40 43 47 49 52 53 56 56 52 42 35 28 18 17 13 13 10 10 10 7 6 5 5 7 4 5 8 10 12 13 15 16 20 14 16 12 22 24 37 32 35 35 22 28
33 32 31 34 37 34 36 36 36 40 43 46 49 51 54 57 57 56 49 39 30 21 13 11 10 9 8 11 12 9 6 2 4 4 4 4 11 12 13 14 13 13 14 18 12 14 23 28 33 24 27 31 32 29
31 30 31 35 34 35 36 37 39 43 47 49 51 54 57 58 55 51 43 32 16 12 15 13 12 10 11 13 15 16 10 5 2 0 4 9 11 11 11 11 12 11 9 12 11 12 20 33 29 28 29 39 33 20
28 30 33 34 33 35 37 39 42 46 48 51 55 57 59 58 54 50 41 35 28 22 21 19 17 15 13 11 16 14 15 19 9 3 5 8 7 7 8 6 9 9 7 5 8 6 9 22 29 37 30 25 29 31
29 31 36 33 34 36 37 41 45 47 50 54 57 59 56 58 53 51 46 40 34 25 21 24 22 20 17 14 16 15 12 20 14 11 9 8 9 7 6 5 7 9 6 5 3 6 5 6 15 21 32 29 31 30
30 33 34 32 34 36 39 43 46 49 52 56 57 55 58 57 54 50 46 40 34 25 24 29 27 25 22 16 18 11 9 11 14 14 11 10 10 7 5 4 3 10 11 7 6 8 4 1 1 10 14 18 23 32
32 35 32 32 34 37 41 44 47 50 54 56 54 58 56 57 55 48 38 32 27 27 26 28 27 27 21 21 20 19 16 15 16 18 15 13 11 8 6 4 4 7 12 12 8 8 6 6 8 5 7 12 13 18
34 32 30 32 35 39 42 44 48 51 54 53 56 54 54 53 47 38 27 20 20 23 32 37 29 30 24 15 26 22 24 23 20 20 16 14 13 9 6 4 4 1 5 11 11 10 8 8 9 13 11 11 11 15
31 29 30 33 37 40 42 45 49 51 51 52 51 51 48 44 37 27 15 10 10 17 28 42 33 37 21 16 28 29 21 26 23 21 18 17 17 9 8 7 6 5 4 6 10 13 14 12 11 12 13 17 16 15
28 28 32 35 38 40 42 45 48 49 47 47 47 42 37 33 23 16 17 10 5 5 17 33 41 22 22 24 36 33 28 28 27 24 24 22 22 15 10 5 8 7 7 6 6 7 9 11 12 14 14 17 21 21
27 31 34 36 38 39 42 44 45 42 44 42 38 33 29 22 18 16 13 14 13 8 3 13 23 23 18 24 37 35 30 26 28 35 26 28 26 21 10 13 16 9 9 8 9 12 11 8 10 14 15 16 19 21
29 32 35 37 37 39 40 41 37 38 37 35 29 27 21 18 17 18 17 16 10 7 0 9 15 18 24 25 26 34 29 28 28 32 35 31 31 26 20 18 16 15 12 10 8 8 8 9 10 13 15 15 17 20
31 34 36 36 37 37 36 36 31 31 30 25 21 17 13 13 13 12 13 13 18 12 9 2 7 12 18 27 31 28 29 29 29 32 31 29 30 30 25 23 19 17 14 10 14 10 13 13 12 12 12 14 16 19
34 35 35 35 35 33 34 28 26 25 24 18 13 10 11 11 11 15 16 20 19 9 10 7 1 6 10 16 21 24 24 27 30 35 36 30 28 32 30 29 29 24 18 12 15 15 13 16 16 16 14 12 12 16
34 34 35 33 31 30 27 23 20 20 16 11 9 8 9 11 12 15 16 16 11 8 9 9 7 4 9 15 18 21 23 23 26 31 33 31 30 30 33 34 31 30 27 23 21 14 19 19 19 16 17 15 14 10
35 35 31 31 28 25 21 19 16 14 13 9 6 8 9 7 8 11 12 13 13 10 9 6 2 0 2 5 13 17 20 24 27 29 31 32 31 29 31 33 35 32 33 29 26 24 21 20 21 18 15 15 17 16
33 33 30 29 25 20 17 16 16 14 11 8 8 12 12 13 12 10 13 15 13 13 9 5 5 4 3 3 4 7 12 17 22 27 31 33 33 34 33 32 33 35 35 34 30 27 24 24 22 18 20 21 19 20
32 31 28 24 21 20 18 18 17 16 14 12 10 10 10 10 14 15 16 15 13 9 8 8 5 1 4 3 4 7 7 9 16 20 25 29 32 33 36 35 33 32 34 34 34 30 29 27 26 26 24 21 20 23
31 29 27 23 21 19 18 19 19 18 17 15 14 13 16 15 16 17 17 18 17 14 11 10 9 7 5 3 2 3 4 9 10 12 18 23 26 31 34 36 36 32 30 32 32 31 31 29 29 28 26 24 22 23
28 28 25 23 20 20 20 19 19 20 19 19 17 15 14 12 16 20 22 22 22 22 21 19 18 19 18 17 14 8 5 6 9 12 13 18 20 21 25 30 33 33 31 31 32 33 33 32 30 30 29 27 26 27
28 27 26 23 22 22 21 19 19 19 19 18 17 17 18 18 17 14 13 17 22 24 25 26 26 26 23 20 18 18 17 13 12 12 12 13 21 27 21 21 27 32 34 33 33 34 34 33 32 30 29 28 30 30
28 28 26 25 24 24 22 21 19 18 16 14 15 16 16 16 16 19 19 17 16 16 15 15 16 18 20 22 22 22 22 21 20 17 16 16 18 21 25 29 29 28 33 35 36 35 36 39 35 35 31 35 37 37
27 28 27 27 27 26 23 23 21 21 20 18 16 16 16 16 15 16 19 22 22 21 20 19 17 15 14 14 15 17 19 20 21 21 20 21 20 20 20 21 25 28 32 32 40 35 36 22 35 34 37 41 45 44
Wind_Direction
320 319 322 325 323 324 322 317 316 319 323 326 332 337 340 343 346 348 349 352 356 355 354 353 349 337 321 312 319 306 293 293 299 306 314 322 329 329 331 337 334 341 343 344 337 324 319 310 310 222 202 201 208 197
316 314 318 322 322 321 320 321 316 316 320 320 326 331 336 339 342 344 345 346 351 352 350 351 349 339 326 310 314 312 296 294 311 312 311 316 329 328 331 336 338 342 344 333 334 310 287 285 320 254 191 182 184 190
309 311 315 318 321 319 317 323 320 315 316 318 323 329 333 335 338 340 341 342 344 347 345 347 343 341 332 316 313 315 308 287 294 314 318 320 323 324 329 339 345 338 338 337 336 304 290 72 331 193 169 175 176 183
304 307 311 315 320 318 316 321 319 316 313 316 322 327 330 332 333 335 335 337 338 340 341 338 336 337 334 320 315 316 313 293 293 299 311 316 324 322 338 340 342 325 331 341 323 224 335 294 176 169 148 163 179 179
300 300 309 314 316 318 315 318 318 316 314 314 320 324 327 329 330 330 332 332 332 333 335 328 327 328 328 322 312 315 313 293 296 304 312 314 325 319 337 336 332 323 342 344 158 132 90 132 182 155 146 162 179 179
296 294 304 309 315 317 314 315 317 316 314 315 319 323 326 328 327 328 329 329 327 328 328 321 317 319 321 312 305 309 312 298 291 299 314 317 325 325 347 335 322 330 352 320 341 107 98 119 165 154 144 169 183 178
294 292 299 306 313 316 313 312 314 314 314 315 318 322 326 326 326 326 327 327 326 324 322 312 308 310 313 302 299 304 306 304 295 291 297 313 320 319 349 329 331 342 17 337 39 136 129 126 139 147 150 170 183 191
292 288 297 305 310 315 312 309 311 312 311 314 318 322 325 325 325 325 325 324 322 319 314 304 305 300 302 297 290 293 300 298 294 302 298 291 301 309 335 313 340 349 9 6 322 171 140 163 156 140 144 171 191 192
291 286 295 304 307 313 309 306 309 310 310 314 318 321 323 323 324 324 324 323 321 315 307 299 298 290 288 283 277 290 290 303 305 319 326 281 300 304 307 317 342 347 359 100 135 125 147 162 151 148 141 177 187 200
293 288 293 302 307 311 306 306 308 309 312 316 319 320 322 322 323 324 324 325 321 313 300 294 294 280 276 259 258 276 281 303 307 316 333 285 288 286 298 312 333 346 344 53 121 114 152 163 151 167 153 144 185 200
291 290 294 301 306 307 305 305 309 311 314 317 320 321 321 323 325 325 327 328 322 315 300 293 285 266 256 231 240 249 268 287 290 295 319 291 284 280 294 303 322 340 339 14 98 124 137 160 163 157 172 180 177 193
290 289 295 302 305 305 303 306 310 313 315 317 320 321 323 325 325 326 329 329 322 314 298 286 263 251 241 225 233 225 233 256 260 291 270 270 278 288 290 287 303 324 339 339 72 114 151 160 159 169 166 161 176 185
285 288 296 304 304 304 304 310 313 314 317 319 320 322 324 325 326 326 328 325 316 286 268 255 248 240 234 229 235 226 209 217 211 272 283 261 275 293 294 286 276 297 336 333 341 95 131 168 176 173 171 179 188 171
281 290 297 303 303 302 308 313 314 316 318 321 323 325 325 325 325 323 320 314 303 284 257 240 235 230 224 240 250 241 248 237 223 237 285 316 315 309 318 299 263 275 301 325 319 333 120 136 152 176 173 178 183 185
286 293 299 301 300 305 312 314 315 317 321 324 326 326 326 324 322 319 313 303 291 272 251 233 228 225 210 225 261 208 204 212 213 233 248 281 324 314 310 323 232 255 279 284 290 290 328 107 131 136 161 173 184 191
290 298 297 298 302 309 313 314 316 320 324 326 327 326 325 324 320 313 304 295 278 260 235 226 222 215 204 238 232 197 209 203 220 227 237 261 286 297 279 299 240 234 252 250 256 264 280 311 116 154 163 164 162 179
293 295 296 300 306 311 313 314 319 322 327 327 328 328 328 326 322 316 304 285 264 238 221 220 212 206 219 233 241 239 239 233 233 234 242 243 263 268 283 270 272 234 235 245 248 240 241 248 246 229 203 195 186 168
293 294 297 303 308 311 312 317 320 326 326 328 331 333 330 329 326 323 313 286 254 228 208 207 208 192 187 191 213 220 214 201 199 215 221 227 231 234 233 239 249 228 235 241 244 240 234 224 215 225 218 222 215 202
292 293 300 305 308 310 314 319 324 326 328 333 335 337 335 335 334 331 326 301 252 219 210 204 201 202 196 201 215 211 206 218 214 209 199 202 216 217 243 229 224 247 245 243 245 239 243 247 238 233 230 227 227 223
290 296 302 305 307 311 316 321 326 327 332 339 339 342 347 345 347 5 16 25 43 202 212 214 214 198 202 212 211 209 208 209 206 197 198 206 206 183 227 212 258 232 239 246 229 236 248 238 229 225 239 239 229 230
292 298 302 304 308 312 318 324 327 331 336 341 347 355 359 359 17 26 45 62 44 21 236 227 218 222 223 210 215 215 212 208 208 203 196 202 202 199 199 218 213 227 228 223 244 248 255 244 235 234 239 239 231 226
294 298 301 304 308 313 320 325 329 335 340 346 355 10 16 28 48 66 68 70 66 43 214 221 235 240 233 216 217 221 219 214 218 218 216 207 210 210 205 214 217 224 220 227 223 220 231 236 230 237 238 242 241 233
295 297 300 304 308 314 321 325 329 337 340 352 10 17 27 32 38 41 35 22 11 9 10 152 192 210 217 217 220 220 220 223 224 226 226 223 213 213 214 211 210 222 222 222 251 246 238 242 238 229 224 229 233 236
293 296 298 304 308 314 319 322 329 335 340 353 15 22 33 31 28 18 12 359 2 25 53 42 316 221 216 217 218 220 219 222 222 222 226 226 223 221 216 213 221 222 222 224 230 239 256 252 244 236 231 224 223 226
293 296 299 303 307 311 314 316 324 328 335 341 9 16 33 35 14 11 5 0 14 24 32 36 46 5 251 235 232 232 229 225 224 223 221 221 224 224 223 222 217 220 225 226 243 242 252 249 234 237 241 243 239 240
293 296 296 300 303 303 303 305 311 316 320 328 319 324 326 338 6 4 4 3 11 17 27 39 15 86 1 266 240 239 238 233 230 229 227 223 224 227 228 227 230 231 230 233 236 242 249 238 234 237 241 250 245 243
291 293 293 295 295 291 292 290 294 299 299 308 288 277 284 293 296 309 331 337 342 350 352 0 346 236 225 246 255 234 239 236 230 228 229 231 229 229 231 231 232 230 232 232 232 237 237 229 228 236 265 264 256 247
289 288 288 286 278 281 280 276 279 286 289 286 291 298 288 284 285 291 300 311 321 324 326 342 3 7 235 238 249 246 251 245 238 229 225 226 228 229 230 231 232 233 232 233 236 239 237 231 230 235 239 247 254 243
284 282 278 270 269 272 268 268 271 274 276 278 279 291 291 284 274 274 280 286 292 295 301 303 313 313 313 260 261 344 280 255 263 251 235 228 225 227 230 230 231 233 234 233 234 232 231 235 236 239 242 239 238 235
274 274 269 267 264 261 263 267 270 269 268 269 270 271 276 292 288 275 269 267 268 273 279 283 288 293 292 295 293 279 276 289 273 252 246 236 227 225 230 231 231 230 232 232 232 232 231 233 235 239 245 240 239 241
272 268 263 258 253 256 259 262 265 268 267 266 269 269 266 270 277 294 297 280 273 272 272 273 278 281 281 278 276 275 271 264 255 244 238 238 228 220 222 221 232 231 231 232 231 228 228 230 235 237 236 237 244 250
265 259 254 249 248 252 258 261 263 260 257 264 268 270 273 274 273 272 277 283 290 301 300 295 287 281 276 273 268 262 260 258 256 247 237 242 241 240 241 240 239 235 232 233 235 233 235 235 238 234 237 247 240 236
258 253 249 245 245 251 257 260 261 257 255 261 269 271 271 274 278 279 277 273 271 272 276 282 283 284 284 280 272 264 261 256 252 249 247 243 240 241 243 243 240 238 236 242 235 236 232 244 224 229 236 244 246 243
Height
5755 5751 5747 5742 5738 5732 5729 5724 5720 5715 5711 5706 5700 5694 5688 5681 5675 5668 5662 5656 5650 5642 5634 5627 5621 5615 5611 5608 5605 5602 5600 5597 5595 5592 5589 5585 5581 5578 5574 5568 5563 5558 5552 5547 5542 5538 5536 5533 5531 5532 5534 5527 5538 5545
5748 5745 5741 5737 5732 5727 5723 5719 5714 5710 5705 5701 5695 5690 5684 5677 5671 5665 5658 5652 5646 5639 5632 5625 5619 5613 5608 5604 5602 5599 5596 5593 5591 5589 5587 5583 5579 5575 5570 5567 5562 5557 5552 5546 5542 5537 5533 5529 5528 5527 5529 5534 5538 5548
5741 5738 5736 5731 5727 5721 5717 5713 5708 5704 5699 5695 5690 5684 5679 5673 5666 5661 5654 5648 5642 5637 5629 5622 5616 5611 5605 5601 5598 5595 5592 5590 5588 5586 5583 5580 5576 5572 5568 5565 5560 5557 5550 5543 5539 5534 5530 5527 5525 5525 5529 5536 5543 5552
5734 5731 5730 5725 5720 5715 5711 5706 5701 5697 5693 5689 5684 5679 5673 5667 5661 5655 5649 5643 5637 5632 5625 5619 5613 5607 5602 5598 5594 5592 5589 5586 5584 5582 5580 5577 5574 5570 5567 5563 5560 5555 5548 5541 5536 5532 5531 5528 5526 5526 5532 5538 5549 5558
5727 5724 5723 5718 5714 5709 5705 5700 5695 5691 5686 5682 5677 5672 5667 5661 5655 5649 5644 5637 5631 5627 5621 5614 5608 5603 5598 5594 5591 5588 5585 5583 5581 5579 5578 5575 5573 5569 5566 5565 5559 5553 5547 5541 5535 5533 5531 5529 5528 5529 5535 5545 5554 5561
5719 5716 5715 5711 5707 5702 5698 5693 5688 5684 5680 5675 5671 5666 5661 5655 5648 5642 5638 5631 5625 5619 5614 5609 5603 5598 5593 5590 5588 5585 5582 5580 5578 5576 5575 5573 5571 5568 5567 5564 5558 5553 5546 5539 5535 5534 5532 5531 5531 5534 5543 5552 5558 5566
5711 5708 5707 5704 5699 5695 5691 5686 5680 5677 5673 5668 5663 5659 5654 5647 5640 5634 5628 5622 5616 5609 5605 5602 5596 5592 5589 5586 5584 5582 5579 5577 5575 5573 5572 5571 5570 5568 5566 5563 5559 5551 5546 5541 5538 5538 5538 5538 5541 5542 5549 5556 5564 5568
5702 5700 5698 5695 5691 5687 5683 5679 5673 5669 5666 5661 5656 5651 5645 5638 5632 5625 5618 5612 5605 5600 5595 5592 5589 5586 5585 5583 5581 5579 5577 5574 5573 5571 5570 5569 5569 5568 5566 5563 5559 5552 5548 5543 5540 5540 5542 5543 5545 5550 5559 5564 5567 5574
5693 5691 5690 5687 5683 5679 5675 5671 5666 5662 5658 5653 5648 5643 5637 5629 5622 5616 5608 5601 5594 5590 5584 5583 5581 5580 5580 5579 5577 5576 5574 5572 5571 5569 5568 5568 5567 5566 5565 5562 5558 5553 5549 5547 5542 5543 5544 5547 5552 5555 5563 5568 5573 5575
5684 5683 5681 5678 5674 5670 5666 5663 5659 5654 5650 5644 5639 5634 5628 5620 5612 5606 5597 5589 5582 5577 5574 5573 5573 5574 5574 5574 5574 5574 5572 5571 5570 5569 5568 5567 5566 5565 5563 5561 5559 5556 5552 5549 5546 5545 5549 5552 5555 5560 5566 5572 5577 5581
5675 5674 5672 5669 5666 5661 5658 5655 5650 5646 5641 5635 5629 5623 5615 5608 5600 5592 5584 5578 5572 5568 5566 5566 5567 5567 5569 5570 5571 5571 5571 5570 5569 5568 5568 5567 5566 5565 5563 5561 5559 5557 5554 5551 5549 5550 5552 5555 5558 5563 5569 5573 5579 5583
5666 5665 5662 5660 5656 5653 5649 5646 5641 5637 5631 5626 5619 5612 5604 5596 5588 5580 5573 5568 5563 5561 5560 5561 5562 5563 5565 5566 5567 5569 5569 5569 5568 5568 5568 5567 5564 5563 5563 5561 5560 5558 5556 5553 5553 5553 5554 5558 5561 5565 5571 5574 5580 5585
5657 5656 5654 5651 5647 5644 5640 5636 5631 5626 5621 5615 5608 5601 5592 5584 5576 5568 5563 5559 5558 5556 5556 5556 5557 5559 5560 5562 5564 5564 5566 5567 5568 5567 5567 5566 5564 5563 5562 5560 5560 5559 5558 5557 5554 5556 5557 5562 5565 5567 5571 5576 5579 5583
5648 5647 5645 5641 5638 5635 5631 5626 5622 5616 5609 5603 5595 5587 5579 5569 5563 5557 5553 5550 5548 5547 5547 5549 5550 5552 5555 5557 5559 5560 5562 5564 5566 5566 5565 5564 5563 5561 5559 5560 5559 5559 5559 5559 5559 5557 5559 5560 5563 5567 5571 5575 5580 5585
5639 5638 5635 5632 5629 5626 5621 5616 5612 5605 5599 5592 5582 5573 5564 5556 5548 5542 5538 5534 5532 5533 5536 5540 5543 5546 5549 5552 5554 5555 5557 5559 5562 5563 5562 5561 5561 5560 5558 5559 5559 5558 5559 5560 5560 5560 5560 5560 5562 5564 5571 5576 5580 5583
5630 5628 5625 5623 5620 5616 5612 5607 5601 5595 5588 5580 5570 5560 5551 5541 5533 5524 5517 5514 5513 5518 5522 5528 5534 5539 5544 5548 5549 5551 5554 5555 5558 5559 5559 5559 5559 5559 5559 5558 5559 5560 5559 5561 5560 5560 5560 5561 5562 5566 5569 5573 5577 5581
5620 5619 5616 5613 5610 5606 5602 5597 5591 5584 5576 5567 5556 5548 5537 5524 5515 5506 5499 5496 5496 5502 5508 5516 5524 5531 5538 5540 5545 5547 5549 5551 5554 5554 5556 5557 5557 5557 5557 5557 5559 5560 5560 5561 5562 5562 5562 5562 5564 5567 5568 5571 5574 5577
5611 5608 5607 5605 5601 5597 5593 5587 5581 5573 5564 5555 5546 5535 5522 5510 5500 5491 5485 5482 5483 5488 5496 5503 5512 5520 5527 5528 5535 5536 5538 5538 5542 5547 5550 5553 5554 5555 5555 5556 5556 5559 5560 5560 5560 5561 5562 5564 5566 5568 5570 5572 5574 5576
5601 5599 5598 5595 5592 5588 5583 5577 5570 5562 5552 5544 5533 5521 5511 5500 5490 5483 5479 5476 5476 5480 5486 5494 5503 5513 5518 5521 5523 5528 5528 5532 5537 5541 5545 5548 5551 5553 5554 5555 5556 5556 5558 5560 5559 5560 5561 5562 5563 5564 5567 5569 5572 5576
5592 5591 5590 5587 5583 5578 5573 5568 5560 5551 5543 5534 5524 5514 5505 5497 5490 5484 5481 5479 5479 5481 5485 5490 5494 5501 5503 5507 5513 5519 5522 5526 5531 5535 5538 5543 5546 5549 5552 5555 5555 5556 5555 5556 5559 5559 5560 5561 5562 5563 5565 5566 5569 5572
5584 5583 5580 5578 5574 5569 5564 5557 5550 5542 5535 5528 5519 5511 5504 5498 5493 5490 5488 5486 5484 5486 5487 5489 5494 5496 5497 5500 5506 5513 5519 5522 5525 5529 5533 5538 5542 5544 5547 5551 5552 5553 5556 5556 5556 5557 5559 5560 5560 5561 5563 5564 5565 5568
5576 5574 5571 5567 5564 5560 5555 5549 5542 5536 5529 5522 5516 5510 5506 5502 5498 5495 5493 5491 5491 5491 5490 5490 5490 5493 5497 5501 5505 5508 5513 5518 5521 5524 5528 5532 5536 5540 5542 5545 5549 5551 5552 5554 5556 5557 5557 5558 5559 5560 5561 5561 5562 5564
5567 5565 5562 5558 5555 5550 5547 5540 5536 5530 5525 5520 5515 5513 5509 5506 5503 5500 5498 5495 5494 5492 5491 5490 5491 5493 5495 5499 5503 5507 5510 5513 5516 5519 5522 5526 5531 5535 5539 5541 5545 5547 5550 5550 5552 5555 5557 5558 5558 5560 5560 5560 5562 5562
5557 5555 5552 5548 5545 5541 5537 5533 5529 5526 5522 5518 5515 5513 5510 5507 5505 5502 5500 5498 5496 5493 5491 5491 5491 5491 5493 5496 5499 5503 5505 5507 5510 5514 5517 5521 5525 5529 5533 5537 5540 5543 5546 5550 5550 5550 5553 5555 5555 5555 5556 5558 5559 5560
5549 5546 5543 5539 5535 5532 5529 5526 5524 5521 5519 5515 5513 5512 5509 5508 5506 5504 5502 5499 5496 5494 5492 5491 5491 5491 5491 5493 5495 5497 5500 5503 5506 5508 5512 5516 5519 5523 5526 5530 5533 5536 5541 5543 5542 5543 5548 5549 5552 5552 5552 5552 5553 5554
5538 5535 5533 5529 5526 5524 5522 5520 5519 5517 5514 5511 5510 5509 5508 5507 5506 5504 5502 5500 5498 5495 5494 5492 5491 5491 5490 5490 5490 5491 5493 5495 5498 5501 5505 5509 5512 5515 5518 5522 5525 5529 5533 5536 5540 5542 5542 5543 5544 5546 5548 5549 5549 5550
5527 5524 5522 5519 5517 5516 5515 5513 5512 5512 5510 5508 5506 5505 5505 5504 5503 5503 5501 5500 5498 5495 5493 5492 5490 5490 5489 5488 5488 5488 5488 5488 5490 5493 5497 5500 5504 5507 5510 5514 5517 5520 5523 5527 5530 5533 5535 5536 5538 5540 5542 5543 5545 5546
5516 5513 5512 5510 5509 5508 5508 5507 5506 5506 5504 5503 5502 5500 5500 5499 5499 5498 5497 5496 5496 5494 5493 5491 5489 5488 5487 5486 5486 5485 5485 5484 5485 5487 5489 5492 5495 5498 5501 5504 5507 5511 5514 5518 5521 5524 5527 5528 5531 5534 5535 5537 5537 5539
5505 5503 5502 5501 5500 5500 5501 5501 5500 5499 5499 5498 5496 5495 5494 5493 5493 5493 5492 5491 5491 5491 5490 5489 5488 5487 5485 5484 5483 5482 5482 5482 5482 5482 5483 5484 5487 5489 5491 5494 5498 5502 5505 5508 5512 5516 5518 5520 5523 5526 5529 5530 5532 5533
5495 5493 5492 5492 5492 5493 5494 5493 5493 5492 5492 5491 5490 5489 5489 5487 5486 5485 5485 5485 5485 5485 5484 5483 5483 5482 5482 5481 5480 5479 5478 5478 5477 5478 5478 5478 5480 5482 5484 5487 5490 5493 5496 5499 5502 5506 5509 5512 5515 5517 5520 5523 5525 5527
5484 5483 5483 5483 5484 5485 5485 5486 5486 5485 5484 5484 5483 5483 5482 5481 5481 5479 5478 5478 5477 5477 5477 5476 5475 5475 5474 5474 5474 5474 5473 5473 5472 5472 5473 5473 5474 5476 5477 5480 5482 5484 5487 5490 5493 5495 5498 5501 5504 5508 5511 5513 5515 5516
5473 5473 5473 5474 5476 5477 5478 5478 5478 5478 5478 5477 5477 5476 5476 5475 5475 5474 5473 5473 5472 5471 5469 5468 5467 5467 5466 5465 5465 5465 5465 5466 5466 5467 5467 5467 5468 5469 5470 5472 5474 5476 5478 5480 5483 5486 5489 5491 5494 5498 5502 5503 5504 5507
5462 5463 5464 5465 5467 5468 5469 5469 5470 5470 5470 5470 5470 5469 5468 5468 5468 5468 5466 5465 5465 5465 5465 5464 5463 5462 5461 5460 5459 5458 5458 5458 5458 5459 5460 5461 5462 5463 5463 5464 5465 5467 5469 5470 5473 5475 5478 5478 5481 5485 5488 5490 5491 5494